Home   Weather   Moss   Past weeks

Flag for Norway Past Weather in Moss, Norway — Yesterday and Last 2 Weeks

Now
28 °F

Ice fog.


Feels Like: 28 °F
Forecast: 25 / 34 °F
Wind: 2 mph from North

Location: Rygge

Current Time: Jan 23, 2017 at 11:51:38 am

Latest Report: Jan 23, 2017 at 11:20 am


Visibility: 0 mi

Pressure: 30.04 "Hg

Humidity: 100%

Dew Point: 28 °F

Location of MossLocation

Past Weather in Moss — Graph

°F

Moss Temperature Yesterday

Maximum temperature yesterday: 37 °F (at 3:20 am)
Minimum temperature yesterday: 30 °F (at 10:20 pm)
Average temperature yesterday: 35 °F

High & Low Weather Summary for the Past Weeks

 TemperatureHumidityPressure
High46 °F (Jan 19, 2:20 pm)100% (Jan 9, 12:50 am)30.45 "Hg (Jan 9, 12:50 am)
Low16 °F (Jan 16, 2:20 am)55% (Jan 15, 1:20 pm)28.50 "Hg (Jan 11, 2:50 pm)
Average33 °F86%29.87 "Hg
* Reported Jan 8 10:20 am — Jan 23 10:20 am, Moss, Weather by CustomWeather, © 2017

Note: Actual official high and low records may vary slightly from our data, if they occured in-between our weather recording intervals... More about our weather records

Advertising

Moss Weather History for the Previous 24 Hours

Scroll right to see more
 ConditionsComfort  
Time TempWeatherWind HumidityBarometerVisibility
10:20 am
Mon, Jan 23
27 °FIce fog.5 mph100%30.04 "Hg0 mi
9:50 am27 °FIce fog.6 mph100%30.04 "Hg0 mi
9:20 am27 °FIce fog.5 mph100%30.04 "Hg0 mi
8:50 am27 °FIce fog.6 mph100%30.04 "Hg0 mi
8:20 am27 °FIce fog.3 mph100%30.04 "Hg0 mi
7:50 am27 °FIce fog.3 mph100%30.04 "Hg0 mi
7:20 am27 °FIce fog.5 mph100%30.04 "Hg0 mi
6:50 am27 °FChilly.5 mph100%30.04 "Hg0 mi
6:20 am28 °FLow clouds.3 mph93%30.07 "Hg0 mi
5:50 am28 °FIce fog.3 mph93%30.07 "Hg0 mi
5:20 am28 °FIce fog.3 mph100%30.07 "Hg0 mi
4:50 am28 °FIce fog.2 mph100%30.07 "Hg0 mi
4:20 am30 °FIce fog.3 mph93%30.07 "Hg0 mi
3:50 am28 °FChilly.3 mph100%30.07 "Hg0 mi
3:20 am28 °FIce fog.3 mph100%30.07 "Hg0 mi
2:50 am28 °FLow clouds.2 mph100%30.07 "Hg1 mi
2:20 am28 °FIce fog.1 mph100%30.07 "Hg0 mi
1:50 am28 °FChilly.2 mph100%30.09 "Hg0 mi
1:20 am28 °FChilly.3 mph100%30.09 "Hg0 mi
12:50 am30 °FIce fog.2 mph93%30.09 "Hg0 mi
12:20 am30 °FIce fog.No wind93%30.09 "Hg0 mi
11:50 pm
Sun, Jan 22
30 °FChilly.2 mph100%30.09 "Hg0 mi
11:20 pm30 °FIce fog.5 mph100%30.09 "Hg0 mi
10:50 pm30 °FIce fog.3 mph100%30.09 "Hg0 mi
10:20 pm30 °FIce fog.3 mph100%30.09 "Hg0 mi
9:50 pm32 °FIce fog.2 mph100%30.09 "Hg0 mi
9:20 pm32 °FIce fog.2 mph100%30.09 "Hg0 mi
8:50 pm32 °FIce fog.3 mph100%30.09 "Hg0 mi
8:20 pm32 °FIce fog.3 mph100%30.12 "Hg0 mi
7:50 pm32 °FFog.3 mph100%30.12 "Hg1 mi
7:20 pm32 °FIce fog.5 mph100%30.12 "Hg2 mi
6:50 pm32 °FLow clouds.5 mph100%30.12 "Hg2 mi
6:20 pm34 °FMostly cloudy.5 mph100%30.12 "HgN/A
5:50 pm34 °FMostly cloudy.5 mph100%30.12 "HgN/A
5:20 pm34 °FPassing clouds.5 mph100%30.12 "HgN/A
4:50 pm34 °FMostly cloudy.2 mph100%30.12 "HgN/A
4:20 pm36 °FMostly cloudy.5 mph93%30.15 "HgN/A
3:50 pm36 °FLow clouds.8 mph93%30.15 "HgN/A
3:20 pm34 °FLow clouds.12 mph100%30.15 "HgN/A
2:50 pm36 °FMostly cloudy.8 mph93%30.15 "Hg1 mi
2:20 pm36 °FFog.10 mph100%30.18 "Hg1 mi
1:50 pm36 °FLow clouds.10 mph100%30.18 "Hg1 mi
1:20 pm36 °FFog.12 mph100%30.18 "Hg2 mi
12:50 pm36 °FFog.10 mph100%30.21 "Hg0 mi
12:20 pm36 °FFog.10 mph100%30.21 "Hg0 mi
11:50 am37 °FLow clouds.8 mph100%30.21 "Hg1 mi
11:20 am37 °FLow clouds.9 mph100%30.24 "Hg2 mi
Weather by CustomWeather, © 2017

See weather overviewHow to use our weather pages